| time (UTC) | temp F | wind direction | speed MPH | gust MPH | rain 1hr in | rain 24hr in | rain mn in | humidity % | barometer mb |
| 20260902023105 | 58 | 238 | 6.0 | 10.0 | 0.00 | 0.12 | 0.01 | 74 | 1009.3 |
| 20260902021604 | 58 | 254 | 8.0 | 12.0 | 0.00 | 0.12 | 0.01 | 74 | 1009.3 |
| 20260902014557 | 58 | 281 | 7.0 | 14.0 | 0.00 | 0.12 | 0.01 | 75 | 1009.3 |
| 20260902013056 | 57 | 249 | 8.0 | 13.0 | 0.00 | 0.12 | 0.01 | 76 | 1009.2 |
| 20260902011606 | 57 | 292 | 7.0 | 12.0 | 0.00 | 0.12 | 0.01 | 76 | 1009.3 |
| 20260902010054 | 57 | 282 | 8.0 | 13.0 | 0.01 | 0.12 | 0.01 | 77 | 1009.3 |
| 20260902004553 | 56 | 294 | 5.0 | 11.0 | 0.01 | 0.12 | 0.01 | 82 | 1009.2 |
| 20260902003051 | 55 | 315 | 3.0 | 6.0 | 0.01 | 0.12 | 0.01 | 82 | 1009.3 |
| 20260902001604 | 55 | 300 | 5.0 | 9.0 | 0.01 | 0.12 | 0.01 | 81 | 1009.4 |
| 20260902000046 | 58 | 291 | 9.0 | 16.0 | 0.00 | 0.11 | 0.00 | 77 | 1009.4 |
| 20260901234542 | 57 | 277 | 2.0 | 6.0 | 0.00 | 0.11 | 0.00 | 78 | 1009.3 |
| 20260901233053 | 57 | 254 | 3.0 | 9.0 | 0.00 | 0.11 | 0.00 | 77 | 1009.3 |
| 20260901231542 | 57 | 322 | 4.0 | 9.0 | 0.00 | 0.11 | 0.00 | 77 | 1009.4 |
| 20260901230040 | 57 | 321 | 6.0 | 12.0 | 0.00 | 0.11 | 0.00 | 77 | 1009.3 |
| 20260901224538 | 57 | 277 | 7.0 | 12.0 | 0.00 | 0.11 | 0.00 | 80 | 1009.3 |
| 20260901223036 | 57 | 323 | 5.0 | 11.0 | 0.00 | 0.11 | 0.00 | 77 | 1009.2 |
| 20260901221535 | 57 | 288 | 4.0 | 12.0 | 0.00 | 0.11 | 0.00 | 76 | 1008.9 |
| 20260901220034 | 58 | 294 | 8.0 | 11.0 | 0.00 | 0.11 | 0.00 | 79 | 1008.9 |
| 20260901214536 | 58 | 254 | 9.0 | 15.0 | 0.00 | 0.11 | 0.11 | 79 | 1008.6 |
| 20260901213028 | 58 | 293 | 8.0 | 13.0 | 0.00 | 0.11 | 0.11 | 81 | 1008.3 |
| 20260901211528 | 58 | 292 | 9.0 | 17.0 | 0.02 | 0.11 | 0.11 | 83 | 1008.2 |
| 20260901210027 | 58 | 256 | 11.0 | 18.0 | 0.02 | 0.11 | 0.11 | 83 | 1008.0 |
| 20260901204526 | 59 | 264 | 8.0 | 22.0 | 0.07 | 0.11 | 0.11 | 90 | 1007.7 |
| 20260901203030 | 58 | 182 | 8.0 | 19.0 | 0.09 | 0.11 | 0.11 | 93 | 1007.6 |
| 20260901201525 | 58 | 153 | 13.0 | 18.0 | 0.07 | 0.09 | 0.09 | 92 | 1007.7 |
| 20260901200032 | 57 | 159 | 12.0 | 17.0 | 0.07 | 0.09 | 0.09 | 92 | 1007.9 |
| 20260901194522 | 57 | 175 | 13.0 | 18.0 | 0.03 | 0.04 | 0.04 | 91 | 1008.3 |
| 20260901193021 | 58 | 132 | 13.0 | 18.0 | 0.02 | 0.02 | 0.02 | 89 | 1008.3 |
| 20260901191521 | 57 | 122 | 12.0 | 19.0 | 0.02 | 0.02 | 0.02 | 89 | 1008.4 |
| 20260901190026 | 57 | 138 | 11.0 | 17.0 | 0.02 | 0.02 | 0.02 | 88 | 1008.6 |
| 20260901184519 | 57 | 153 | 11.0 | 16.0 | 0.01 | 0.01 | 0.01 | 87 | 1008.7 |
| 20260901183018 | 58 | 155 | 12.0 | 17.0 | 0.00 | 0.00 | 0.00 | 84 | 1009.0 |
| 20260901181520 | 58 | 139 | 10.0 | 15.0 | 0.00 | 0.00 | 0.00 | 84 | 1009.1 |
| 20260901180019 | 58 | 159 | 12.0 | 16.0 | 0.00 | 0.00 | 0.00 | 83 | 1009.4 |
| 20260901174517 | 59 | 149 | 10.0 | 15.0 | 0.00 | 0.00 | 0.00 | 81 | 1009.5 |
| 20260901173015 | 59 | 158 | 8.0 | 14.0 | 0.00 | 0.00 | 0.00 | 80 | 1009.8 |
| 20260901171516 | 59 | 190 | 8.0 | 14.0 | 0.00 | 0.00 | 0.00 | 80 | 1010.0 |
| 20260901170015 | 59 | 203 | 11.0 | 15.0 | 0.00 | 0.00 | 0.00 | 79 | 1010.1 |
| 20260901164515 | 59 | 208 | 10.0 | 14.0 | 0.00 | 0.00 | 0.00 | 79 | 1010.1 |
| 20260901163015 | 59 | 186 | 10.0 | 14.0 | 0.00 | 0.00 | 0.00 | 78 | 1010.1 |
| 20260901161516 | 59 | 191 | 9.0 | 13.0 | 0.00 | 0.00 | 0.00 | 77 | 1010.0 |
| 20260901160015 | 59 | 223 | 8.0 | 13.0 | 0.00 | 0.00 | 0.00 | 78 | 1010.1 |
| 20260901154510 | 59 | 215 | 8.0 | 11.0 | 0.00 | 0.00 | 0.00 | 76 | 1010.0 |
| 20260901153015 | 59 | 228 | 10.0 | 12.0 | 0.00 | 0.00 | 0.00 | 77 | 1010.1 |
| 20260901151511 | 59 | 217 | 9.0 | 14.0 | 0.00 | 0.00 | 0.00 | 80 | 1010.2 |
| 20260901150010 | 59 | 237 | 9.0 | 12.0 | 0.00 | 0.00 | 0.00 | 81 | 1010.2 |
| 20260901144512 | 59 | 232 | 8.0 | 12.0 | 0.00 | 0.00 | 0.00 | 83 | 1010.2 |
| 20260901143012 | 58 | 238 | 10.0 | 14.0 | 0.00 | 0.00 | 0.00 | 85 | 1010.3 |
| 20260901141510 | 58 | 219 | 5.0 | 10.0 | 0.00 | 0.00 | 0.00 | 86 | 1010.1 |
| 20260901140006 | 58 | 236 | 9.0 | 12.0 | 0.00 | 0.00 | 0.00 | 89 | 1010.2 |
| 20260901134506 | 58 | 252 | 9.0 | 13.0 | 0.00 | 0.00 | 0.00 | 90 | 1010.1 |
| 20260901133005 | 58 | 284 | 8.0 | 14.0 | 0.00 | 0.00 | 0.00 | 89 | 1010.1 |
| 20260901131505 | 60 | 217 | 10.0 | 12.0 | 0.00 | 0.00 | 0.00 | 84 | 1010.0 |
| 20260901130002 | 60 | 232 | 7.0 | 11.0 | 0.00 | 0.00 | 0.00 | 81 | 1010.0 |
| 20260901124601 | 60 | 203 | 7.0 | 9.0 | 0.00 | 0.00 | 0.00 | 79 | 1010.1 |
| 20260901124502 | 60 | 217 | 7.0 | 9.0 | 0.00 | 0.00 | 0.00 | 79 | 1010.0 |
| 20260901123059 | 60 | 243 | 6.0 | 10.0 | 0.00 | 0.00 | 0.00 | 79 | 1010.0 |
| 20260901121603 | 60 | 205 | 4.0 | 7.0 | 0.00 | 0.00 | 0.00 | 80 | 1010.0 |
| 20260901120056 | 60 | 233 | 3.0 | 7.0 | 0.00 | 0.00 | 0.00 | 80 | 1010.0 |
| 20260901114558 | 59 | 219 | 5.0 | 8.0 | 0.00 | 0.00 | 0.00 | 80 | 1010.1 |
| 20260901113056 | 60 | 232 | 5.0 | 8.0 | 0.00 | 0.00 | 0.00 | 79 | 1010.1 |
| 20260901111554 | 60 | 209 | 4.0 | 7.0 | 0.00 | 0.00 | 0.00 | 79 | 1010.0 |
| 20260901110052 | 59 | 213 | 2.0 | 4.0 | 0.00 | 0.00 | 0.00 | 80 | 1010.1 |
| 20260901104553 | 59 | 259 | 4.0 | 7.0 | 0.00 | 0.00 | 0.00 | 79 | 1010.1 |
| 20260901103050 | 59 | 290 | 3.0 | 4.0 | 0.00 | 0.00 | 0.00 | 78 | 1010.0 |
| 20260901101608 | 59 | 270 | 3.0 | 6.0 | 0.00 | 0.00 | 0.00 | 77 | 1010.0 |
| 20260901100048 | 59 | 252 | 2.0 | 4.0 | 0.00 | 0.00 | 0.00 | 77 | 1010.0 |
| 20260901094546 | 58 | 248 | 0.0 | 5.0 | 0.00 | 0.00 | 0.00 | 77 | 1009.9 |
| 20260901093045 | 58 | 283 | 1.0 | 3.0 | 0.00 | 0.00 | 0.00 | 77 | 1009.9 |
| 20260901091542 | 58 | 232 | 1.0 | 3.0 | 0.00 | 0.00 | 0.00 | 77 | 1009.9 |
| 20260901090041 | 58 | 269 | 2.0 | 5.0 | 0.00 | 0.00 | 0.00 | 78 | 1009.9 |
| 20260901084540 | 58 | 241 | 2.0 | 3.0 | 0.00 | 0.00 | 0.00 | 78 | 1009.8 |
| 20260901083039 | 58 | 312 | 0.0 | 3.0 | 0.00 | 0.00 | 0.00 | 79 | 1009.7 |
| 20260901081543 | 58 | 347 | 1.0 | 5.0 | 0.00 | 0.00 | 0.00 | 81 | 1009.8 |
| 20260901080043 | 57 | 333 | 3.0 | 5.0 | 0.00 | 0.00 | 0.00 | 81 | 1009.7 |
| 20260901074543 | 57 | 288 | 2.0 | 5.0 | 0.00 | 0.00 | 0.00 | 83 | 1009.8 |
| 20260901073038 | 57 | 288 | 1.0 | 5.0 | 0.00 | 0.00 | 0.00 | 84 | 1009.7 |
| 20260901071531 | 57 | 351 | 1.0 | 4.0 | 0.00 | 0.00 | 0.00 | 86 | 1009.7 |
| 20260901070033 | 56 | 301 | 0.0 | 5.0 | 0.00 | 0.00 | 0.00 | 87 | 1009.7 |
| 20260901064530 | 56 | 267 | 1.0 | 4.0 | 0.00 | 0.00 | 0.00 | 89 | 1009.4 |
| 20260901063025 | 56 | 286 | 0.0 | 4.0 | 0.00 | 0.00 | 0.00 | 90 | 1009.4 |
| 20260901061525 | 55 | 330 | 1.0 | 4.0 | 0.00 | 0.00 | 0.00 | 91 | 1009.3 |
| 20260901060022 | 54 | 336 | 0.0 | 0.0 | 0.00 | 0.00 | 0.00 | 93 | 1009.3 |
| 20260901054522 | 54 | 336 | 0.0 | 0.0 | 0.00 | 0.00 | 0.00 | 92 | 1009.3 |
| 20260901053021 | 53 | 336 | 0.0 | 0.0 | 0.00 | 0.00 | 0.00 | 93 | 1009.2 |
| 20260901051529 | 52 | 336 | 0.0 | 0.0 | 0.00 | 0.00 | 0.00 | 92 | 1009.2 |
| 20260901050018 | 52 | 336 | 0.0 | 0.0 | 0.00 | 0.00 | 0.00 | 91 | 1009.0 |
| 20260901044517 | 52 | 336 | 0.0 | 0.0 | 0.00 | 0.00 | 0.00 | 92 | 1009.0 |
| 20260901043017 | 52 | 336 | 0.0 | 0.0 | 0.00 | 0.00 | 0.00 | 92 | 1008.9 |
| 20260901041534 | 52 | 336 | 0.0 | 0.0 | 0.00 | 0.00 | 0.00 | 91 | 1008.9 |
| 20260901040019 | 52 | 301 | 0.0 | 0.0 | 0.00 | 0.00 | 0.00 | 91 | 1008.9 |
| 20260901034511 | 53 | 301 | 0.0 | 0.0 | 0.00 | 0.00 | 0.00 | 91 | 1008.9 |
| 20260901033012 | 53 | 301 | 0.0 | 0.0 | 0.00 | 0.00 | 0.00 | 91 | 1008.8 |
| 20260901031510 | 53 | 301 | 0.0 | 0.0 | 0.00 | 0.00 | 0.00 | 91 | 1008.8 |
| 20260901030007 | 53 | 320 | 0.0 | 3.0 | 0.00 | 0.00 | 0.00 | 91 | 1008.7 |
| 20260901024507 | 53 | 290 | 0.0 | 0.0 | 0.00 | 0.00 | 0.00 | 91 | 1008.7 |